Location: Isola Pescaroli
(45.0500°N, 10.1667°E)
Time: 01:14:36
(UTC+00:00)

OBJECT-B - Pass Details

Date: 03 March 2021
Orbit: 414 x 427 km, 97.0° (Epoch: 11 April)

Event Time Altitude Azimuth Distance (km) Brightness Sun altitude
Exits shadow 18:05:12 11° 55° (NE) 1,442 3.0 -10.6°
Drops below altitude 10° 18:05:49 10° 44° (NE) 1,513 3.2 -10.7°
Sets 18:08:55 0° 10° (N) 2,381 4.5 -11.3°
